Ottumwa, IA

9:52 AM CST on November 21, 2017 (GMT -0600)
Ottumwa Industrial

Weather History for KOTM - February, 2013

Change the Weather History Date:

Monday, February 4, 2013

  Actual Average Record
Temperature  
Mean Temperature 21 °F 24 °F  
Max Temperature 30 °F 33 °F 59 °F (2005)
Min Temperature 12 °F 15 °F -19 °F (1996)
Degree Days  
Heating Degree Days 44 41  
Month to date heating degree days 181 165  
Since 1 July heating degree days 3673 3987  
Cooling Degree Days 0 0  
Month to date cooling degree days 0 0  
Year to date cooling degree days 0 0  
Moisture  
Dew Point 17 °F    
Average Humidity 78    
Maximum Humidity 88    
Minimum Humidity 68    
Precipitation  
Precipitation 0.00 in 0.03 in 0.80 in (1903)
Month to date precipitation 0.01 0.12  
Year to date precipitation 1.53 1.02  
Sea Level Pressure  
Sea Level Pressure 29.94 in    
Wind  
Wind Speed 10 mph (NNW)    
Max Wind Speed 24 mph    
Max Gust Speed 28 mph    
Visibility 9 miles    
Events      
T = Trace of Precipitation, MM = Missing Value Source: NWS Daily Summary

Daily Weather History Graph

Daily Weather History Graph

Search for Another Location

Airport or City:

Trip Planner

Search our weather history database for the weather conditions in past years. The results will help you decide how hot, cold, wet, or windy it might be!

Date:

Astronomy

Feb. 04, 2013 Rise Set
Actual Time 7:17 AM CST 5:30 PM CST
Civil Twilight 6:48 AM CST 5:59 PM CST
Nautical Twilight 6:15 AM CST 6:32 PM CST
Astronomical Twilight 5:43 AM CST 7:04 PM CST
Moon 1:54 AM CST (2/4) 11:54 AM CST (2/4)
Length of Visible Light 11h 11m
Length of Day
10h 13m
Last Quarter, 37% of the Moon is Illuminated
Feb 4
Last Quarter
Feb 10
New
Feb 17
First Quarter
Feb 25
Full
Mar 4
Last Quarter

Hourly Weather History & Observations

Time (CST) Temp. Windchill Dew Point Humidity Pressure Visibility Wind Dir Wind Speed Gust Speed Precip Events Conditions
12:53 AM 27.0 °F 15.6 °F 18.0 °F 69% 29.84 in 10.0 mi South 13.8 mph - N/A   Clear
1:53 AM 28.0 °F 17.5 °F 19.0 °F 69% 29.81 in 10.0 mi South 12.7 mph - N/A   Clear
2:53 AM 28.0 °F 18.6 °F 19.0 °F 69% 29.79 in 10.0 mi SSW 10.4 mph - N/A   Clear
4:53 AM 28.0 °F 22.8 °F 21.0 °F 75% 29.79 in 10.0 mi NNW 4.6 mph - N/A   Clear
5:53 AM 27.0 °F 23.0 °F 21.0 °F 78% 29.80 in 10.0 mi North 3.5 mph - N/A   Mostly Cloudy
6:53 AM 24.1 °F 14.4 °F 18.0 °F 77% 29.81 in 10.0 mi NW 9.2 mph - N/A   Mostly Cloudy
7:53 AM 25.0 °F 11.7 °F 19.0 °F 78% 29.85 in 10.0 mi NNW 17.3 mph - N/A   Partly Cloudy
8:53 AM 23.0 °F 8.3 °F 17.1 °F 78% 29.90 in 10.0 mi NNW 19.6 mph - N/A   Scattered Clouds
9:01 AM 23.0 °F 8.3 °F 17.6 °F 80% 29.86 in 10.0 mi NNW 19.6 mph - N/A   Mostly Cloudy
9:53 AM 24.1 °F 11.0 °F 18.0 °F 77% 29.93 in 10.0 mi North 16.1 mph - N/A   Scattered Clouds
10:23 AM 24.8 °F 11.9 °F 19.4 °F 80% 29.90 in 10.0 mi North 16.1 mph - N/A   Mostly Cloudy
10:53 AM 23.0 °F 8.3 °F 18.0 °F 81% 29.96 in 5.0 mi NNW 19.6 mph - N/A   Haze
11:24 AM 21.2 °F 5.2 °F 17.6 °F 86% 29.95 in 6.0 mi NNW 21.9 mph - N/A   Haze
11:53 AM 21.9 °F 6.2 °F 17.1 °F 82% 30.00 in 6.0 mi NNW 21.9 mph - N/A   Haze
12:10 PM 21.2 °F 4.9 °F 17.6 °F 86% 29.97 in 6.0 mi North 23.0 mph - N/A   Haze
12:53 PM 21.9 °F 7.3 °F 16.0 °F 78% 29.99 in 9.0 mi North 18.4 mph - N/A   Overcast
1:53 PM 23.0 °F 12.4 °F 17.1 °F 78% 29.97 in 10.0 mi North 10.4 mph - N/A   Overcast
2:45 PM 24.8 °F 16.1 °F 17.6 °F 74% 29.94 in 10.0 mi North 8.1 mph - N/A   Mostly Cloudy
2:53 PM 25.0 °F 18.1 °F 17.1 °F 72% 29.98 in 10.0 mi North 5.8 mph - N/A   Mostly Cloudy
3:08 PM 24.8 °F 17.9 °F 17.6 °F 74% 29.96 in 10.0 mi North 5.8 mph - N/A   Scattered Clouds
3:41 PM 24.8 °F 14.0 °F 17.6 °F 74% 29.98 in 10.0 mi NNW 11.5 mph - N/A   Mostly Cloudy
3:53 PM 24.1 °F 13.7 °F 17.1 °F 75% 30.01 in 10.0 mi North 10.4 mph - N/A   Overcast
4:53 PM 24.1 °F 14.4 °F 17.1 °F 75% 30.00 in 10.0 mi NNW 9.2 mph - N/A   Overcast
5:31 PM 21.2 °F 13.6 °F 15.8 °F 80% 29.96 in 10.0 mi NNW 5.8 mph - N/A   Scattered Clouds
5:53 PM 21.0 °F 13.4 °F 15.1 °F 78% 30.00 in 10.0 mi NNW 5.8 mph - N/A   Clear
6:53 PM 19.9 °F 12.1 °F 16.0 °F 85% 30.01 in 10.0 mi NNW 5.8 mph - N/A   Clear
7:53 PM 19.0 °F 11.1 °F 15.1 °F 85% 30.02 in 8.0 mi NNW 5.8 mph - N/A   Clear
8:53 PM 17.1 °F - 12.9 °F 84% 30.01 in 6.0 mi Calm Calm - N/A   Clear
9:00 PM 17.6 °F - 12.2 °F 79% 29.97 in 6.0 mi Calm Calm - N/A   Partly Cloudy
9:53 PM 16.0 °F 10.4 °F 12.9 °F 88% 29.99 in 7.0 mi ESE 3.5 mph - N/A   Clear
10:53 PM 17.1 °F 11.7 °F 14.0 °F 88% 29.99 in 8.0 mi SW 3.5 mph - N/A   Overcast
11:53 PM 19.0 °F 13.9 °F 16.0 °F 88% 30.00 in 6.0 mi WSW 3.5 mph - N/A   Overcast